User: anonymous   Login
Location: Innerarity Island Observatory
(30.3139°N, 87.4867°W)
Time: 02:48:05
(UTC-06:00)
Language:

JAS-2 - Orbit

View from above orbital plane
View from above orbital plane
View from above satellite
View from above satellite

Ground track
Ground track

The orbit data is extracted from the following two-line orbital elements,

1 24278U 96046B   16040.06192887 -.00000022  00000-0  13125-4 0  9991
2 24278  98.5770 342.2131 0350458 176.8221 183.5263 13.53063035962058
Epoch (UTC): 09 February 2016 01:29:10
Eccentricity: 0.0350458
inclination: 98.5770°
perigee height: 800 km
apogee height: 1322 km
right ascension of ascending node: 342.2131°
argument of perigee: 176.8221°
revolutions per day: 13.53063035
mean anomaly at epoch: 183.5263°
orbit number at epoch: 96205

The dashed part of the orbit path shows where the satellite is in the earth's shadow,  

DLR